sat.trackr.live / text

‹ back to catalog

STARLINK-34665

NORAD 65089 · 2025-167M

PAYLOAD ACTIVE UNKNOWN

§ Identity

Operator
Country
US
Launch date
2025-08-04
Launch site
AFETR
Launch vehicle
Mass (kg)
RCS (m²)

Purposes: comms

External: N2YO · Heavens-Above · Gunter

§ Orbital elements

Epoch: 2026-05-24T23:03:45.108000Z

Period
94.11 min
Inclination
53.1601°
Eccentricity
0.0001198
Mean motion
15.30196058 rev/d
Perigee alt
474.4 km
Apogee alt
476.0 km
Semi-major
6,853.4 km
B*
2.3345e-4
RAAN
32.6518°
Arg perigee
49.3230°
Mean anomaly
310.7875°
Rev number
4,515

§ Raw data

STARLINK-346651 65089U 25167M   26144.96093875  .00006560  00000+0  23345-3 0  99992 65089  53.1601  32.6518 0001198  49.3230 310.7875 15.30196058 45155

JSON: /api/v1/satellites/65089 · /tle

For live sub-satellite position, see the globe view (requires WebGL).

§ Visibility from observer

Set your observer location to see the next 7 days of passes ≥ 10°. The values pass through the URL so the page stays shareable.

No JS? Fill the form by hand. The geolocation button needs JavaScript.